Time,TemperatureF,DewpointF,PressureIn,WindDirection,WindDirectionDegrees,WindSpeedMPH,WindSpeedGustMPH,Humidity,HourlyPrecipIn,Conditions,Clouds,dailyrainin,SoftwareType,DateUTC
2013-09-11 00:01:00,76.0,71.0,30.08,SSW,202,9.0,10.0,87,0.00,,,0.00,Rainwise IP-100,2013-09-11 04:01:00,
2013-09-11 00:06:00,76.0,71.0,30.08,WSW,247,8.0,14.0,87,0.00,,,0.00,Rainwise IP-100,2013-09-11 04:06:00,
2013-09-11 00:11:00,76.0,71.0,30.08,SSW,202,9.0,11.0,87,0.00,,,0.00,Rainwise IP-100,2013-09-11 04:11:00,
2013-09-11 00:16:00,76.0,71.0,30.08,SSE,157,10.0,14.0,87,0.00,,,0.00,Rainwise IP-100,2013-09-11 04:16:00,
2013-09-11 00:21:00,76.0,71.0,30.08,SW,225,9.0,17.0,87,0.00,,,0.00,Rainwise IP-100,2013-09-11 04:21:00,
2013-09-11 00:26:00,75.0,71.0,30.08,South,180,6.0,9.0,86,0.00,,,0.00,Rainwise IP-100,2013-09-11 04:26:00,
2013-09-11 00:31:00,76.0,71.0,30.07,South,180,15.0,17.0,87,0.00,,,0.00,Rainwise IP-100,2013-09-11 04:31:00,
2013-09-11 00:36:00,75.0,71.0,30.07,SSW,202,7.0,17.0,87,0.00,,,0.00,Rainwise IP-100,2013-09-11 04:36:00,
2013-09-11 00:41:00,76.0,72.0,30.07,SSW,202,7.0,14.0,88,0.00,,,0.00,Rainwise IP-100,2013-09-11 04:41:00,
2013-09-11 00:46:00,75.0,71.0,30.07,SW,225,6.0,10.0,87,0.00,,,0.00,Rainwise IP-100,2013-09-11 04:46:00,
2013-09-11 00:51:00,75.0,71.0,30.07,SW,225,6.0,15.0,87,0.00,,,0.00,Rainwise IP-100,2013-09-11 04:51:00,
2013-09-11 00:56:00,75.0,71.0,30.07,SW,225,10.0,13.0,88,0.00,,,0.00,Rainwise IP-100,2013-09-11 04:56:00,
2013-09-11 01:01:00,75.0,71.0,30.07,WSW,247,4.0,10.0,88,0.00,,,0.00,Rainwise IP-100,2013-09-11 05:01:00,
2013-09-11 01:06:00,75.0,71.0,30.07,WSW,247,9.0,11.0,87,0.00,,,0.00,Rainwise IP-100,2013-09-11 05:06:00,
2013-09-11 01:11:00,76.0,71.0,30.07,WSW,247,12.0,20.0,87,0.00,,,0.00,Rainwise IP-100,2013-09-11 05:11:00,
2013-09-11 01:16:00,75.0,71.0,30.07,SW,225,6.0,12.0,87,0.00,,,0.00,Rainwise IP-100,2013-09-11 05:16:00,
2013-09-11 01:21:00,75.0,71.0,30.07,SW,225,7.0,12.0,88,0.00,,,0.00,Rainwise IP-100,2013-09-11 05:21:00,
2013-09-11 01:26:00,75.0,71.0,30.07,South,180,10.0,11.0,88,0.00,,,0.00,Rainwise IP-100,2013-09-11 05:26:00,
2013-09-11 01:31:00,75.0,71.0,30.07,SW,225,9.0,13.0,88,0.00,,,0.00,Rainwise IP-100,2013-09-11 05:31:00,
2013-09-11 01:36:00,75.0,71.0,30.07,SW,225,7.0,13.0,87,0.00,,,0.00,Rainwise IP-100,2013-09-11 05:36:00,
2013-09-11 01:41:00,75.0,71.0,30.07,South,180,8.0,12.0,88,0.00,,,0.00,Rainwise IP-100,2013-09-11 05:41:00,
2013-09-11 01:46:00,75.0,71.0,30.07,SW,225,12.0,13.0,88,0.00,,,0.00,Rainwise IP-100,2013-09-11 05:46:00,
2013-09-11 01:51:00,76.0,71.0,30.06,SW,225,8.0,16.0,87,0.00,,,0.00,Rainwise IP-100,2013-09-11 05:51:00,
2013-09-11 01:56:00,75.0,71.0,30.06,South,180,10.0,15.0,87,0.00,,,0.00,Rainwise IP-100,2013-09-11 05:56:00,
2013-09-11 02:01:00,76.0,71.0,30.06,South,180,9.0,15.0,87,0.00,,,0.00,Rainwise IP-100,2013-09-11 06:01:00,
2013-09-11 02:06:00,75.0,71.0,30.06,WSW,247,8.0,16.0,86,0.00,,,0.00,Rainwise IP-100,2013-09-11 06:06:00,
2013-09-11 02:11:00,75.0,71.0,30.07,SSE,157,8.0,15.0,86,0.00,,,0.00,Rainwise IP-100,2013-09-11 06:11:00,
2013-09-11 02:16:00,76.0,71.0,30.07,ESE,112,12.0,13.0,86,0.00,,,0.00,Rainwise IP-100,2013-09-11 06:16:00,
2013-09-11 02:21:00,76.0,71.0,30.06,South,180,9.0,14.0,86,0.00,,,0.00,Rainwise IP-100,2013-09-11 06:21:00,
2013-09-11 02:26:00,75.0,71.0,30.06,SW,225,7.0,10.0,86,0.00,,,0.00,Rainwise IP-100,2013-09-11 06:26:00,
2013-09-11 02:31:00,76.0,71.0,30.07,SSW,202,7.0,12.0,86,0.00,,,0.00,Rainwise IP-100,2013-09-11 06:31:00,
2013-09-11 02:36:00,75.0,71.0,30.07,South,180,6.0,9.0,86,0.00,,,0.00,Rainwise IP-100,2013-09-11 06:36:00,
2013-09-11 02:41:00,75.0,71.0,30.07,SSE,157,6.0,12.0,86,0.00,,,0.00,Rainwise IP-100,2013-09-11 06:41:00,
2013-09-11 02:46:00,75.0,71.0,30.07,SW,225,7.0,9.0,87,0.00,,,0.00,Rainwise IP-100,2013-09-11 06:46:00,
2013-09-11 02:51:00,75.0,71.0,30.07,SW,225,6.0,8.0,88,0.00,,,0.00,Rainwise IP-100,2013-09-11 06:51:00,
2013-09-11 02:56:00,74.0,70.0,30.07,SE,135,6.0,13.0,88,0.00,,,0.00,Rainwise IP-100,2013-09-11 06:56:00,
2013-09-11 03:01:00,75.0,71.0,30.07,South,180,8.0,10.0,87,0.00,,,0.00,Rainwise IP-100,2013-09-11 07:01:00,
2013-09-11 03:06:00,75.0,71.0,30.07,SSW,202,2.0,12.0,87,0.00,,,0.00,Rainwise IP-100,2013-09-11 07:06:00,
2013-09-11 03:11:00,75.0,71.0,30.07,SW,225,6.0,8.0,87,0.00,,,0.00,Rainwise IP-100,2013-09-11 07:11:00,
2013-09-11 03:16:00,75.0,71.0,30.07,SE,135,7.0,8.0,87,0.00,,,0.00,Rainwise IP-100,2013-09-11 07:16:00,
2013-09-11 03:21:00,75.0,71.0,30.07,SSW,202,4.0,9.0,86,0.00,,,0.00,Rainwise IP-100,2013-09-11 07:21:00,
2013-09-11 03:26:00,75.0,71.0,30.07,SSW,202,6.0,11.0,86,0.00,,,0.00,Rainwise IP-100,2013-09-11 07:26:00,
2013-09-11 03:31:00,75.0,70.0,30.07,SW,225,5.0,13.0,85,0.00,,,0.00,Rainwise IP-100,2013-09-11 07:31:00,
2013-09-11 03:36:00,75.0,71.0,30.07,SW,225,4.0,12.0,86,0.00,,,0.00,Rainwise IP-100,2013-09-11 07:36:00,
2013-09-11 03:41:00,75.0,71.0,30.07,SW,225,5.0,12.0,86,0.00,,,0.00,Rainwise IP-100,2013-09-11 07:41:00,
2013-09-11 03:46:00,75.0,70.0,30.07,SW,225,6.0,13.0,85,0.00,,,0.00,Rainwise IP-100,2013-09-11 07:46:00,
2013-09-11 03:51:00,75.0,70.0,30.07,WSW,247,5.0,13.0,85,0.00,,,0.00,Rainwise IP-100,2013-09-11 07:51:00,
2013-09-11 03:56:00,75.0,70.0,30.07,WSW,247,6.0,14.0,85,0.00,,,0.00,Rainwise IP-100,2013-09-11 07:56:00,
2013-09-11 04:01:00,75.0,71.0,30.07,South,180,9.0,13.0,86,0.00,,,0.00,Rainwise IP-100,2013-09-11 08:01:00,
2013-09-11 04:06:00,75.0,71.0,30.07,SW,225,6.0,14.0,86,0.00,,,0.00,Rainwise IP-100,2013-09-11 08:06:00,
2013-09-11 04:11:00,75.0,71.0,30.07,SSW,202,5.0,10.0,86,0.00,,,0.00,Rainwise IP-100,2013-09-11 08:11:00,
2013-09-11 04:16:00,75.0,71.0,30.07,South,180,5.0,11.0,86,0.00,,,0.00,Rainwise IP-100,2013-09-11 08:16:00,
2013-09-11 04:21:00,75.0,71.0,30.07,South,180,7.0,12.0,86,0.00,,,0.00,Rainwise IP-100,2013-09-11 08:21:00,
2013-09-11 04:26:00,75.0,71.0,30.07,SW,225,6.0,11.0,86,0.00,,,0.00,Rainwise IP-100,2013-09-11 08:26:00,
2013-09-11 04:31:00,75.0,71.0,30.07,SSW,202,9.0,15.0,86,0.00,,,0.00,Rainwise IP-100,2013-09-11 08:31:00,
2013-09-11 04:36:00,75.0,71.0,30.07,SSW,202,7.0,13.0,86,0.00,,,0.00,Rainwise IP-100,2013-09-11 08:36:00,
2013-09-11 04:41:00,75.0,71.0,30.07,SSW,202,12.0,12.0,86,0.00,,,0.00,Rainwise IP-100,2013-09-11 08:41:00,
2013-09-11 04:46:00,75.0,71.0,30.07,SSE,157,9.0,12.0,86,0.00,,,0.00,Rainwise IP-100,2013-09-11 08:46:00,
2013-09-11 04:51:00,75.0,71.0,30.07,South,180,5.0,10.0,87,0.00,,,0.00,Rainwise IP-100,2013-09-11 08:51:00,
2013-09-11 04:56:00,75.0,71.0,30.07,SW,225,6.0,10.0,87,0.00,,,0.00,Rainwise IP-100,2013-09-11 08:56:00,
2013-09-11 05:01:00,74.0,70.0,30.07,SSE,157,7.0,12.0,88,0.00,,,0.00,Rainwise IP-100,2013-09-11 09:01:00,
2013-09-11 05:06:00,74.0,70.0,30.07,South,180,6.0,9.0,88,0.00,,,0.00,Rainwise IP-100,2013-09-11 09:06:00,
2013-09-11 05:11:00,74.0,70.0,30.08,South,180,7.0,9.0,87,0.00,,,0.00,Rainwise IP-100,2013-09-11 09:11:00,
2013-09-11 05:16:00,74.0,70.0,30.08,SW,225,2.0,10.0,87,0.00,,,0.00,Rainwise IP-100,2013-09-11 09:16:00,
2013-09-11 05:21:00,74.0,70.0,30.08,SSW,202,7.0,7.0,88,0.00,,,0.00,Rainwise IP-100,2013-09-11 09:21:00,
2013-09-11 05:26:00,74.0,70.0,30.08,South,180,8.0,10.0,88,0.00,,,0.00,Rainwise IP-100,2013-09-11 09:26:00,
2013-09-11 05:31:00,74.0,70.0,30.09,SSE,157,6.0,10.0,88,0.00,,,0.00,Rainwise IP-100,2013-09-11 09:31:00,
2013-09-11 05:36:00,74.0,71.0,30.09,South,180,9.0,9.0,89,0.00,,,0.00,Rainwise IP-100,2013-09-11 09:36:00,
2013-09-11 05:41:00,74.0,70.0,30.09,South,180,8.0,9.0,88,0.00,,,0.00,Rainwise IP-100,2013-09-11 09:41:00,
2013-09-11 05:46:00,74.0,70.0,30.09,South,180,4.0,12.0,88,0.00,,,0.00,Rainwise IP-100,2013-09-11 09:46:00,
2013-09-11 05:51:00,74.0,70.0,30.09,South,180,6.0,12.0,88,0.00,,,0.00,Rainwise IP-100,2013-09-11 09:51:00,
2013-09-11 05:56:00,74.0,70.0,30.09,SSE,157,6.0,10.0,88,0.00,,,0.00,Rainwise IP-100,2013-09-11 09:56:00,
2013-09-11 06:01:00,74.0,71.0,30.09,South,180,5.0,9.0,89,0.00,,,0.00,Rainwise IP-100,2013-09-11 10:01:00,
2013-09-11 06:06:00,74.0,71.0,30.09,South,180,4.0,8.0,89,0.00,,,0.00,Rainwise IP-100,2013-09-11 10:06:00,
2013-09-11 06:11:00,74.0,71.0,30.09,South,180,6.0,9.0,89,0.00,,,0.00,Rainwise IP-100,2013-09-11 10:11:00,
2013-09-11 06:16:00,74.0,71.0,30.09,SW,225,9.0,10.0,89,0.00,,,0.00,Rainwise IP-100,2013-09-11 10:16:00,
2013-09-11 06:21:00,74.0,71.0,30.09,South,180,8.0,10.0,89,0.00,,,0.00,Rainwise IP-100,2013-09-11 10:21:00,
2013-09-11 06:26:00,74.0,70.0,30.09,South,180,6.0,10.0,88,0.00,,,0.00,Rainwise IP-100,2013-09-11 10:26:00,
2013-09-11 06:31:00,74.0,71.0,30.09,SW,225,6.0,10.0,90,0.00,,,0.00,Rainwise IP-100,2013-09-11 10:31:00,
2013-09-11 06:36:00,74.0,71.0,30.09,South,180,6.0,9.0,89,0.00,,,0.00,Rainwise IP-100,2013-09-11 10:36:00,
2013-09-11 06:41:00,74.0,71.0,30.10,SSW,202,6.0,9.0,89,0.00,,,0.00,Rainwise IP-100,2013-09-11 10:41:00,
2013-09-11 06:46:00,74.0,71.0,30.10,SSE,157,7.0,10.0,89,0.00,,,0.00,Rainwise IP-100,2013-09-11 10:46:00,
2013-09-11 06:51:00,74.0,71.0,30.10,South,180,2.0,8.0,89,0.00,,,0.00,Rainwise IP-100,2013-09-11 10:51:00,
2013-09-11 06:56:00,74.0,71.0,30.10,SSW,202,7.0,9.0,89,0.00,,,0.00,Rainwise IP-100,2013-09-11 10:56:00,
2013-09-11 07:01:00,74.0,71.0,30.10,South,180,7.0,10.0,89,0.00,,,0.00,Rainwise IP-100,2013-09-11 11:01:00,
2013-09-11 07:06:00,74.0,71.0,30.10,SSE,157,6.0,12.0,89,0.00,,,0.00,Rainwise IP-100,2013-09-11 11:06:00,
2013-09-11 07:11:00,74.0,70.0,30.11,SSE,157,12.0,12.0,88,0.00,,,0.00,Rainwise IP-100,2013-09-11 11:11:00,
2013-09-11 07:16:00,74.0,70.0,30.11,South,180,6.0,16.0,87,0.00,,,0.00,Rainwise IP-100,2013-09-11 11:16:00,
2013-09-11 07:21:00,74.0,70.0,30.10,SSW,202,5.0,10.0,87,0.00,,,0.00,Rainwise IP-100,2013-09-11 11:21:00,
2013-09-11 07:26:00,75.0,71.0,30.10,South,180,6.0,14.0,87,0.00,,,0.00,Rainwise IP-100,2013-09-11 11:26:00,
2013-09-11 07:31:00,75.0,71.0,30.09,SW,225,7.0,17.0,86,0.00,,,0.00,Rainwise IP-100,2013-09-11 11:31:00,
2013-09-11 07:36:00,75.0,70.0,30.09,SSW,202,10.0,12.0,85,0.00,,,0.00,Rainwise IP-100,2013-09-11 11:36:00,
2013-09-11 07:41:00,75.0,70.0,30.10,South,180,6.0,12.0,84,0.00,,,0.00,Rainwise IP-100,2013-09-11 11:41:00,
2013-09-11 07:46:00,76.0,71.0,30.10,SW,225,10.0,16.0,84,0.00,,,0.00,Rainwise IP-100,2013-09-11 11:46:00,
2013-09-11 07:51:00,76.0,70.0,30.09,West,270,9.0,14.0,83,0.00,,,0.00,Rainwise IP-100,2013-09-11 11:51:00,
2013-09-11 07:56:00,76.0,70.0,30.09,SW,225,10.0,17.0,82,0.00,,,0.00,Rainwise IP-100,2013-09-11 11:56:00,
2013-09-11 08:01:00,76.0,70.0,30.09,SW,225,11.0,17.0,82,0.00,,,0.00,Rainwise IP-100,2013-09-11 12:01:00,
2013-09-11 08:06:00,76.0,69.0,30.09,SSW,202,10.0,16.0,81,0.00,,,0.00,Rainwise IP-100,2013-09-11 12:06:00,
2013-09-11 08:11:00,77.0,70.0,30.09,SSW,202,4.0,16.0,80,0.00,,,0.00,Rainwise IP-100,2013-09-11 12:11:00,
2013-09-11 08:16:00,77.0,70.0,30.09,West,270,12.0,16.0,80,0.00,,,0.00,Rainwise IP-100,2013-09-11 12:16:00,
2013-09-11 08:21:00,77.0,70.0,30.09,WSW,247,6.0,18.0,80,0.00,,,0.00,Rainwise IP-100,2013-09-11 12:21:00,
2013-09-11 08:26:00,77.0,70.0,30.09,SW,225,4.0,15.0,80,0.00,,,0.00,Rainwise IP-100,2013-09-11 12:26:00,
2013-09-11 08:31:00,77.0,70.0,30.09,SW,225,10.0,15.0,80,0.00,,,0.00,Rainwise IP-100,2013-09-11 12:31:00,
2013-09-11 08:36:00,77.0,70.0,30.09,WSW,247,9.0,15.0,79,0.00,,,0.00,Rainwise IP-100,2013-09-11 12:36:00,
2013-09-11 08:41:00,77.0,69.0,30.09,West,270,8.0,13.0,78,0.00,,,0.00,Rainwise IP-100,2013-09-11 12:41:00,
2013-09-11 08:46:00,78.0,71.0,30.09,SW,225,7.0,14.0,78,0.00,,,0.00,Rainwise IP-100,2013-09-11 12:46:00,
2013-09-11 08:51:00,78.0,70.0,30.10,SW,225,7.0,14.0,77,0.00,,,0.00,Rainwise IP-100,2013-09-11 12:51:00,
2013-09-11 08:56:00,78.0,70.0,30.10,SW,225,6.0,19.0,76,0.00,,,0.00,Rainwise IP-100,2013-09-11 12:56:00,
2013-09-11 09:01:00,78.0,70.0,30.09,West,270,11.0,19.0,76,0.00,,,0.00,Rainwise IP-100,2013-09-11 13:01:00,
2013-09-11 09:06:00,78.0,70.0,30.09,West,270,11.0,16.0,76,0.00,,,0.00,Rainwise IP-100,2013-09-11 13:06:00,
2013-09-11 09:11:00,78.0,69.0,30.10,SW,225,14.0,16.0,75,0.00,,,0.00,Rainwise IP-100,2013-09-11 13:11:00,
2013-09-11 09:16:00,78.0,70.0,30.10,SW,225,11.0,16.0,76,0.00,,,0.00,Rainwise IP-100,2013-09-11 13:16:00,
2013-09-11 09:21:00,79.0,70.0,30.09,SW,225,6.0,16.0,74,0.00,,,0.00,Rainwise IP-100,2013-09-11 13:21:00,
2013-09-11 09:26:00,79.0,70.0,30.09,SW,225,8.0,13.0,74,0.00,,,0.00,Rainwise IP-100,2013-09-11 13:26:00,
2013-09-11 09:31:00,79.0,70.0,30.09,WSW,247,8.0,15.0,75,0.00,,,0.00,Rainwise IP-100,2013-09-11 13:31:00,
2013-09-11 09:36:00,79.0,69.0,30.09,West,270,10.0,17.0,72,0.00,,,0.00,Rainwise IP-100,2013-09-11 13:36:00,
2013-09-11 09:41:00,79.0,69.0,30.09,WSW,247,6.0,18.0,72,0.00,,,0.00,Rainwise IP-100,2013-09-11 13:41:00,
2013-09-11 09:46:00,79.0,69.0,30.09,SW,225,1.0,15.0,72,0.00,,,0.00,Rainwise IP-100,2013-09-11 13:46:00,
2013-09-11 09:51:00,79.0,69.0,30.09,SW,225,9.0,18.0,72,0.00,,,0.00,Rainwise IP-100,2013-09-11 13:51:00,
2013-09-11 09:56:00,80.0,69.0,30.09,SW,225,2.0,12.0,71,0.00,,,0.00,Rainwise IP-100,2013-09-11 13:56:00,
2013-09-11 10:01:00,80.0,69.0,30.09,SSW,202,9.0,13.0,70,0.00,,,0.00,Rainwise IP-100,2013-09-11 14:01:00,
2013-09-11 10:06:00,80.0,69.0,30.09,West,270,10.0,23.0,71,0.00,,,0.00,Rainwise IP-100,2013-09-11 14:06:00,
2013-09-11 10:11:00,80.0,69.0,30.09,WSW,247,7.0,19.0,71,0.00,,,0.00,Rainwise IP-100,2013-09-11 14:11:00,
2013-09-11 10:16:00,80.0,69.0,30.09,West,270,10.0,13.0,70,0.00,,,0.00,Rainwise IP-100,2013-09-11 14:16:00,
2013-09-11 10:21:00,80.0,69.0,30.08,WSW,247,10.0,19.0,69,0.00,,,0.00,Rainwise IP-100,2013-09-11 14:21:00,
2013-09-11 10:26:00,81.0,70.0,30.08,SW,225,6.0,15.0,69,0.00,,,0.00,Rainwise IP-100,2013-09-11 14:26:00,
2013-09-11 10:31:00,81.0,69.0,30.07,West,270,7.0,13.0,68,0.00,,,0.00,Rainwise IP-100,2013-09-11 14:31:00,
2013-09-11 10:36:00,81.0,70.0,30.07,SW,225,3.0,16.0,70,0.00,,,0.00,Rainwise IP-100,2013-09-11 14:36:00,
2013-09-11 10:41:00,81.0,69.0,30.07,SW,225,7.0,12.0,68,0.00,,,0.00,Rainwise IP-100,2013-09-11 14:41:00,
2013-09-11 10:46:00,81.0,70.0,30.07,SW,225,9.0,15.0,70,0.00,,,0.00,Rainwise IP-100,2013-09-11 14:46:00,
2013-09-11 10:51:00,82.0,71.0,30.07,SSW,202,3.0,15.0,69,0.00,,,0.00,Rainwise IP-100,2013-09-11 14:51:00,
2013-09-11 10:56:00,82.0,71.0,30.07,West,270,9.0,14.0,69,0.00,,,0.00,Rainwise IP-100,2013-09-11 14:56:00,
2013-09-11 11:01:00,82.0,70.0,30.06,SW,225,7.0,12.0,67,0.00,,,0.00,Rainwise IP-100,2013-09-11 15:01:00,
2013-09-11 11:06:00,82.0,70.0,30.06,SSW,202,5.0,13.0,68,0.00,,,0.00,Rainwise IP-100,2013-09-11 15:06:00,
2013-09-11 11:11:00,82.0,69.0,30.06,West,270,9.0,18.0,65,0.00,,,0.00,Rainwise IP-100,2013-09-11 15:11:00,
2013-09-11 11:16:00,82.0,70.0,30.06,WSW,247,2.0,16.0,67,0.00,,,0.00,Rainwise IP-100,2013-09-11 15:16:00,
2013-09-11 11:21:00,82.0,68.0,30.05,SW,225,15.0,17.0,64,0.00,,,0.00,Rainwise IP-100,2013-09-11 15:21:00,
2013-09-11 11:26:00,82.0,69.0,30.05,West,270,10.0,15.0,65,0.00,,,0.00,Rainwise IP-100,2013-09-11 15:26:00,
2013-09-11 11:31:00,82.0,69.0,30.05,West,270,10.0,14.0,66,0.00,,,0.00,Rainwise IP-100,2013-09-11 15:31:00,
2013-09-11 11:36:00,82.0,69.0,30.05,SW,225,7.0,19.0,66,0.00,,,0.00,Rainwise IP-100,2013-09-11 15:36:00,
2013-09-11 11:41:00,82.0,68.0,30.05,WSW,247,5.0,15.0,64,0.00,,,0.00,Rainwise IP-100,2013-09-11 15:41:00,
2013-09-11 11:46:00,83.0,69.0,30.05,WSW,247,9.0,19.0,63,0.00,,,0.00,Rainwise IP-100,2013-09-11 15:46:00,
2013-09-11 11:51:00,83.0,69.0,30.05,SW,225,11.0,16.0,64,0.00,,,0.00,Rainwise IP-100,2013-09-11 15:51:00,
2013-09-11 11:56:00,83.0,69.0,30.05,WSW,247,10.0,18.0,63,0.00,,,0.00,Rainwise IP-100,2013-09-11 15:56:00,
2013-09-11 12:01:00,83.0,69.0,30.05,West,270,10.0,17.0,62,0.00,,,0.00,Rainwise IP-100,2013-09-11 16:01:00,
2013-09-11 12:06:00,83.0,67.0,30.05,WSW,247,14.0,18.0,60,0.00,,,0.00,Rainwise IP-100,2013-09-11 16:06:00,
2013-09-11 12:11:00,83.0,69.0,30.05,WSW,247,5.0,17.0,62,0.00,,,0.00,Rainwise IP-100,2013-09-11 16:11:00,
2013-09-11 12:16:00,83.0,67.0,30.05,WSW,247,9.0,19.0,60,0.00,,,0.00,Rainwise IP-100,2013-09-11 16:16:00,
2013-09-11 12:21:00,83.0,69.0,30.03,West,270,6.0,16.0,62,0.00,,,0.00,Rainwise IP-100,2013-09-11 16:21:00,
2013-09-11 12:26:00,84.0,68.0,30.03,WSW,247,6.0,16.0,59,0.00,,,0.00,Rainwise IP-100,2013-09-11 16:26:00,
2013-09-11 12:31:00,84.0,69.0,30.03,SW,225,7.0,20.0,60,0.00,,,0.00,Rainwise IP-100,2013-09-11 16:31:00,
2013-09-11 12:36:00,84.0,69.0,30.03,West,270,10.0,18.0,60,0.00,,,0.00,Rainwise IP-100,2013-09-11 16:36:00,
2013-09-11 12:41:00,84.0,69.0,30.03,WSW,247,8.0,15.0,60,0.00,,,0.00,Rainwise IP-100,2013-09-11 16:41:00,
2013-09-11 12:46:00,84.0,69.0,30.03,SW,225,5.0,15.0,61,0.00,,,0.00,Rainwise IP-100,2013-09-11 16:46:00,
2013-09-11 12:51:00,84.0,70.0,30.03,SW,225,7.0,18.0,63,0.00,,,0.00,Rainwise IP-100,2013-09-11 16:51:00,
2013-09-11 12:56:00,84.0,70.0,30.03,SW,225,9.0,16.0,63,0.00,,,0.00,Rainwise IP-100,2013-09-11 16:56:00,
2013-09-11 13:01:00,84.0,71.0,30.03,WSW,247,9.0,18.0,64,0.00,,,0.00,Rainwise IP-100,2013-09-11 17:01:00,
2013-09-11 13:06:00,84.0,69.0,30.03,WNW,292,10.0,19.0,61,0.00,,,0.00,Rainwise IP-100,2013-09-11 17:06:00,
2013-09-11 13:11:00,84.0,69.0,30.03,SW,225,3.0,18.0,62,0.00,,,0.00,Rainwise IP-100,2013-09-11 17:11:00,
2013-09-11 13:16:00,85.0,70.0,30.03,SW,225,10.0,17.0,62,0.00,,,0.00,Rainwise IP-100,2013-09-11 17:16:00,
2013-09-11 13:21:00,85.0,71.0,30.02,West,270,11.0,17.0,63,0.00,,,0.00,Rainwise IP-100,2013-09-11 17:21:00,
2013-09-11 13:26:00,85.0,71.0,30.02,West,270,10.0,17.0,64,0.00,,,0.00,Rainwise IP-100,2013-09-11 17:26:00,
2013-09-11 13:31:00,85.0,70.0,30.02,SW,225,5.0,18.0,62,0.00,,,0.00,Rainwise IP-100,2013-09-11 17:31:00,
2013-09-11 13:36:00,85.0,70.0,30.02,WSW,247,13.0,17.0,61,0.00,,,0.00,Rainwise IP-100,2013-09-11 17:36:00,
2013-09-11 13:41:00,85.0,70.0,30.02,SW,225,13.0,20.0,62,0.00,,,0.00,Rainwise IP-100,2013-09-11 17:41:00,
2013-09-11 13:46:00,85.0,70.0,30.02,West,270,8.0,19.0,61,0.00,,,0.00,Rainwise IP-100,2013-09-11 17:46:00,
2013-09-11 13:51:00,85.0,70.0,30.02,SW,225,6.0,19.0,62,0.00,,,0.00,Rainwise IP-100,2013-09-11 17:51:00,
2013-09-11 13:56:00,85.0,70.0,30.02,West,270,12.0,16.0,62,0.00,,,0.00,Rainwise IP-100,2013-09-11 17:56:00,
2013-09-11 14:01:00,85.0,71.0,30.02,West,270,7.0,20.0,63,0.00,,,0.00,Rainwise IP-100,2013-09-11 18:01:00,
2013-09-11 14:06:00,85.0,71.0,30.02,West,270,15.0,15.0,63,0.00,,,0.00,Rainwise IP-100,2013-09-11 18:06:00,
2013-09-11 14:11:00,85.0,71.0,30.02,SW,225,8.0,16.0,63,0.00,,,0.00,Rainwise IP-100,2013-09-11 18:11:00,
2013-09-11 14:16:00,85.0,71.0,30.02,WSW,247,10.0,20.0,64,0.00,,,0.00,Rainwise IP-100,2013-09-11 18:16:00,
2013-09-11 14:21:00,85.0,71.0,30.02,SW,225,8.0,19.0,64,0.00,,,0.00,Rainwise IP-100,2013-09-11 18:21:00,
2013-09-11 14:26:00,86.0,72.0,30.02,SW,225,10.0,12.0,63,0.00,,,0.00,Rainwise IP-100,2013-09-11 18:26:00,
2013-09-11 14:31:00,86.0,72.0,30.02,WSW,247,6.0,22.0,64,0.00,,,0.00,Rainwise IP-100,2013-09-11 18:31:00,
2013-09-11 14:36:00,85.0,71.0,30.02,WSW,247,7.0,16.0,63,0.00,,,0.00,Rainwise IP-100,2013-09-11 18:36:00,
2013-09-11 14:41:00,86.0,71.0,30.01,West,270,10.0,18.0,61,0.00,,,0.00,Rainwise IP-100,2013-09-11 18:41:00,
2013-09-11 14:46:00,86.0,71.0,30.01,SW,225,10.0,19.0,62,0.00,,,0.00,Rainwise IP-100,2013-09-11 18:46:00,
2013-09-11 14:51:00,86.0,71.0,30.01,WSW,247,13.0,15.0,61,0.00,,,0.00,Rainwise IP-100,2013-09-11 18:51:00,
2013-09-11 14:56:00,86.0,72.0,30.01,SW,225,9.0,16.0,63,0.00,,,0.00,Rainwise IP-100,2013-09-11 18:56:00,
2013-09-11 15:01:00,86.0,72.0,30.01,WSW,247,4.0,17.0,63,0.00,,,0.00,Rainwise IP-100,2013-09-11 19:01:00,
2013-09-11 15:06:00,86.0,72.0,30.01,West,270,7.0,12.0,63,0.00,,,0.00,Rainwise IP-100,2013-09-11 19:06:00,
2013-09-11 15:11:00,86.0,71.0,30.00,WSW,247,9.0,15.0,61,0.00,,,0.00,Rainwise IP-100,2013-09-11 19:11:00,
2013-09-11 15:16:00,85.0,70.0,30.00,WSW,247,16.0,16.0,62,0.00,,,0.00,Rainwise IP-100,2013-09-11 19:16:00,
2013-09-11 15:21:00,85.0,71.0,30.00,SW,225,6.0,17.0,63,0.00,,,0.00,Rainwise IP-100,2013-09-11 19:21:00,
2013-09-11 15:26:00,85.0,71.0,30.00,SW,225,6.0,15.0,64,0.00,,,0.00,Rainwise IP-100,2013-09-11 19:26:00,
2013-09-11 15:31:00,85.0,72.0,30.00,WSW,247,7.0,18.0,66,0.00,,,0.00,Rainwise IP-100,2013-09-11 19:31:00,
2013-09-11 15:36:00,85.0,72.0,30.00,West,270,7.0,14.0,66,0.00,,,0.00,Rainwise IP-100,2013-09-11 19:36:00,
2013-09-11 15:41:00,84.0,71.0,30.00,SW,225,10.0,15.0,66,0.00,,,0.00,Rainwise IP-100,2013-09-11 19:41:00,
2013-09-11 15:46:00,84.0,72.0,30.00,SW,225,5.0,15.0,67,0.00,,,0.00,Rainwise IP-100,2013-09-11 19:46:00,
2013-09-11 15:51:00,85.0,72.0,30.00,SW,225,12.0,13.0,65,0.00,,,0.00,Rainwise IP-100,2013-09-11 19:51:00,
2013-09-11 15:56:00,85.0,72.0,30.00,South,180,11.0,15.0,65,0.00,,,0.00,Rainwise IP-100,2013-09-11 19:56:00,
2013-09-11 16:01:00,85.0,72.0,29.98,SW,225,5.0,13.0,67,0.00,,,0.00,Rainwise IP-100,2013-09-11 20:01:00,
2013-09-11 16:06:00,84.0,71.0,29.98,WSW,247,7.0,11.0,65,0.00,,,0.00,Rainwise IP-100,2013-09-11 20:06:00,
2013-09-11 16:11:00,85.0,73.0,29.98,West,270,6.0,9.0,68,0.00,,,0.00,Rainwise IP-100,2013-09-11 20:11:00,
2013-09-11 16:16:00,85.0,71.0,29.98,WSW,247,9.0,14.0,64,0.00,,,0.00,Rainwise IP-100,2013-09-11 20:16:00,
2013-09-11 16:21:00,84.0,71.0,29.98,SW,225,6.0,14.0,65,0.00,,,0.00,Rainwise IP-100,2013-09-11 20:21:00,
2013-09-11 16:26:00,84.0,72.0,29.98,West,270,4.0,12.0,67,0.00,,,0.00,Rainwise IP-100,2013-09-11 20:26:00,
2013-09-11 16:31:00,83.0,71.0,29.98,WSW,247,6.0,10.0,68,0.00,,,0.00,Rainwise IP-100,2013-09-11 20:31:00,
2013-09-11 16:36:00,83.0,71.0,29.98,SW,225,13.0,16.0,68,0.00,,,0.00,Rainwise IP-100,2013-09-11 20:36:00,
2013-09-11 16:41:00,82.0,71.0,29.97,SW,225,3.0,16.0,70,0.00,,,0.00,Rainwise IP-100,2013-09-11 20:41:00,
2013-09-11 16:46:00,82.0,71.0,29.97,SW,225,4.0,14.0,69,0.00,,,0.00,Rainwise IP-100,2013-09-11 20:46:00,
2013-09-11 16:51:00,82.0,71.0,29.99,SW,225,7.0,12.0,71,0.00,,,0.00,Rainwise IP-100,2013-09-11 20:51:00,
2013-09-11 16:56:00,78.0,73.0,29.99,West,270,6.0,20.0,86,0.12,,,0.04,Rainwise IP-100,2013-09-11 20:56:00,
2013-09-11 17:01:00,75.0,73.0,30.05,South,180,14.0,16.0,93,1.08,,,0.19,Rainwise IP-100,2013-09-11 21:01:00,
2013-09-11 17:06:00,73.0,71.0,30.05,SSW,202,9.0,15.0,95,1.08,,,0.20,Rainwise IP-100,2013-09-11 21:06:00,
2013-09-11 17:11:00,73.0,72.0,30.03,South,180,10.0,13.0,96,0.12,,,0.20,Rainwise IP-100,2013-09-11 21:11:00,
2013-09-11 17:16:00,73.0,72.0,30.03,South,180,7.0,11.0,96,0.00,,,0.20,Rainwise IP-100,2013-09-11 21:16:00,
2013-09-11 17:21:00,73.0,71.0,30.03,SW,225,4.0,13.0,94,0.00,,,0.20,Rainwise IP-100,2013-09-11 21:21:00,
2013-09-11 17:26:00,72.0,71.0,30.03,SW,225,8.0,13.0,98,0.00,,,0.20,Rainwise IP-100,2013-09-11 21:26:00,
2013-09-11 17:31:00,72.0,69.0,30.05,South,180,10.0,23.0,93,0.00,,,0.20,Rainwise IP-100,2013-09-11 21:31:00,
2013-09-11 17:36:00,71.0,69.0,30.05,South,180,7.0,13.0,94,0.00,,,0.20,Rainwise IP-100,2013-09-11 21:36:00,
2013-09-11 17:41:00,72.0,70.0,30.05,South,180,10.0,13.0,95,0.00,,,0.20,Rainwise IP-100,2013-09-11 21:41:00,
2013-09-11 17:46:00,72.0,70.0,30.05,SSW,202,7.0,13.0,94,0.00,,,0.20,Rainwise IP-100,2013-09-11 21:46:00,
2013-09-11 17:51:00,72.0,69.0,30.05,South,180,12.0,13.0,92,0.00,,,0.20,Rainwise IP-100,2013-09-11 21:51:00,
2013-09-11 17:56:00,73.0,70.0,30.05,WSW,247,5.0,12.0,92,0.00,,,0.20,Rainwise IP-100,2013-09-11 21:56:00,
2013-09-11 18:01:00,73.0,70.0,30.03,SW,225,7.0,12.0,91,0.00,,,0.20,Rainwise IP-100,2013-09-11 22:01:00,
2013-09-11 18:06:00,73.0,71.0,30.03,South,180,7.0,11.0,93,0.00,,,0.20,Rainwise IP-100,2013-09-11 22:06:00,
2013-09-11 18:11:00,73.0,71.0,30.03,SSW,202,6.0,12.0,95,0.00,,,0.20,Rainwise IP-100,2013-09-11 22:11:00,
2013-09-11 18:16:00,73.0,72.0,30.03,South,180,6.0,7.0,97,0.00,,,0.20,Rainwise IP-100,2013-09-11 22:16:00,
2013-09-11 18:21:00,72.0,71.0,30.04,South,180,7.0,10.0,98,0.00,,,0.21,Rainwise IP-100,2013-09-11 22:21:00,
2013-09-11 18:26:00,72.0,71.0,30.04,SW,225,6.0,13.0,99,0.12,,,0.22,Rainwise IP-100,2013-09-11 22:26:00,
2013-09-11 18:31:00,72.0,71.0,30.04,South,180,9.0,13.0,99,0.12,,,0.22,Rainwise IP-100,2013-09-11 22:31:00,
2013-09-11 18:36:00,72.0,71.0,30.04,SW,225,7.0,12.0,98,0.00,,,0.22,Rainwise IP-100,2013-09-11 22:36:00,
2013-09-11 18:41:00,72.0,70.0,30.05,South,180,9.0,14.0,95,0.00,,,0.22,Rainwise IP-100,2013-09-11 22:41:00,
2013-09-11 18:46:00,72.0,70.0,30.05,South,180,9.0,16.0,94,0.00,,,0.22,Rainwise IP-100,2013-09-11 22:46:00,
2013-09-11 18:51:00,72.0,69.0,30.05,South,180,7.0,11.0,93,0.00,,,0.22,Rainwise IP-100,2013-09-11 22:51:00,
2013-09-11 18:56:00,72.0,70.0,30.05,South,180,7.0,12.0,94,0.00,,,0.22,Rainwise IP-100,2013-09-11 22:56:00,
2013-09-11 19:01:00,72.0,69.0,30.04,South,180,8.0,13.0,90,0.00,,,0.22,Rainwise IP-100,2013-09-11 23:01:00,
2013-09-11 19:06:00,72.0,69.0,30.04,South,180,9.0,13.0,90,0.00,,,0.22,Rainwise IP-100,2013-09-11 23:06:00,
2013-09-11 19:11:00,72.0,69.0,30.04,SSE,157,9.0,12.0,91,0.00,,,0.22,Rainwise IP-100,2013-09-11 23:11:00,
2013-09-11 19:16:00,72.0,69.0,30.04,South,180,8.0,13.0,92,0.00,,,0.22,Rainwise IP-100,2013-09-11 23:16:00,
2013-09-11 19:21:00,71.0,69.0,30.03,South,180,10.0,11.0,94,0.00,,,0.22,Rainwise IP-100,2013-09-11 23:21:00,
2013-09-11 19:26:00,72.0,69.0,30.03,SSW,202,10.0,13.0,93,0.00,,,0.22,Rainwise IP-100,2013-09-11 23:26:00,
2013-09-11 19:31:00,72.0,69.0,30.03,SSW,202,10.0,13.0,93,0.00,,,0.22,Rainwise IP-100,2013-09-11 23:31:00,
2013-09-11 19:36:00,72.0,69.0,30.03,SSE,157,15.0,17.0,93,0.00,,,0.22,Rainwise IP-100,2013-09-11 23:36:00,
2013-09-11 19:41:00,72.0,70.0,30.04,South,180,10.0,18.0,94,0.00,,,0.22,Rainwise IP-100,2013-09-11 23:41:00,
2013-09-11 19:46:00,72.0,69.0,30.04,South,180,13.0,16.0,93,0.00,,,0.22,Rainwise IP-100,2013-09-11 23:46:00,
2013-09-11 19:51:00,72.0,69.0,30.04,SSW,202,12.0,17.0,93,0.00,,,0.22,Rainwise IP-100,2013-09-11 23:51:00,
2013-09-11 19:56:00,72.0,69.0,30.04,SSW,202,9.0,12.0,90,0.00,,,0.22,Rainwise IP-100,2013-09-11 23:56:00,
2013-09-11 20:01:00,73.0,69.0,30.03,SW,225,7.0,11.0,89,0.00,,,0.22,Rainwise IP-100,2013-09-12 00:01:00,
2013-09-11 20:06:00,73.0,69.0,30.03,South,180,6.0,10.0,88,0.00,,,0.22,Rainwise IP-100,2013-09-12 00:06:00,
2013-09-11 20:11:00,73.0,69.0,30.03,SSW,202,7.0,8.0,88,0.00,,,0.22,Rainwise IP-100,2013-09-12 00:11:00,
2013-09-11 20:16:00,73.0,69.0,30.03,South,180,6.0,9.0,88,0.00,,,0.22,Rainwise IP-100,2013-09-12 00:16:00,
2013-09-11 20:21:00,73.0,69.0,30.03,SSW,202,6.0,8.0,88,0.00,,,0.22,Rainwise IP-100,2013-09-12 00:21:00,
2013-09-11 20:26:00,73.0,69.0,30.03,South,180,7.0,9.0,86,0.00,,,0.22,Rainwise IP-100,2013-09-12 00:26:00,
2013-09-11 20:31:00,74.0,69.0,30.04,South,180,9.0,10.0,84,0.00,,,0.22,Rainwise IP-100,2013-09-12 00:31:00,
2013-09-11 20:36:00,74.0,69.0,30.04,South,180,10.0,12.0,86,0.00,,,0.22,Rainwise IP-100,2013-09-12 00:36:00,
2013-09-11 20:41:00,74.0,69.0,30.07,SW,225,10.0,32.0,84,0.00,,,0.22,Rainwise IP-100,2013-09-12 00:41:00,
2013-09-11 20:46:00,74.0,69.0,30.07,WSW,247,15.0,28.0,83,0.00,,,0.22,Rainwise IP-100,2013-09-12 00:46:00,
2013-09-11 20:51:00,73.0,67.0,30.06,WSW,247,16.0,25.0,83,0.00,,,0.22,Rainwise IP-100,2013-09-12 00:51:00,
2013-09-11 20:56:00,73.0,67.0,30.06,SW,225,16.0,25.0,82,0.00,,,0.22,Rainwise IP-100,2013-09-12 00:56:00,
2013-09-11 21:01:00,73.0,67.0,30.07,South,180,15.0,22.0,82,0.00,,,0.22,Rainwise IP-100,2013-09-12 01:01:00,
2013-09-11 21:06:00,72.0,66.0,30.07,West,270,6.0,22.0,82,0.00,,,0.22,Rainwise IP-100,2013-09-12 01:06:00,
2013-09-11 21:11:00,72.0,66.0,30.07,SSW,202,11.0,20.0,82,0.00,,,0.22,Rainwise IP-100,2013-09-12 01:11:00,
2013-09-11 21:16:00,71.0,66.0,30.07,WSW,247,15.0,24.0,87,0.06,,,0.23,Rainwise IP-100,2013-09-12 01:16:00,
2013-09-11 21:21:00,71.0,67.0,30.07,SW,225,12.0,25.0,88,0.06,,,0.23,Rainwise IP-100,2013-09-12 01:21:00,
2013-09-11 21:26:00,70.0,66.0,30.07,SW,225,13.0,19.0,88,0.00,,,0.23,Rainwise IP-100,2013-09-12 01:26:00,
2013-09-11 21:31:00,70.0,66.0,30.07,SW,225,11.0,20.0,89,0.00,,,0.23,Rainwise IP-100,2013-09-12 01:31:00,
2013-09-11 21:36:00,70.0,66.0,30.07,SW,225,11.0,19.0,87,0.00,,,0.23,Rainwise IP-100,2013-09-12 01:36:00,
2013-09-11 21:41:00,70.0,66.0,30.06,SSW,202,10.0,18.0,88,0.00,,,0.23,Rainwise IP-100,2013-09-12 01:41:00,
2013-09-11 21:46:00,70.0,66.0,30.06,SW,225,9.0,19.0,87,0.00,,,0.23,Rainwise IP-100,2013-09-12 01:46:00,
2013-09-11 21:51:00,70.0,66.0,30.06,South,180,10.0,20.0,87,0.00,,,0.23,Rainwise IP-100,2013-09-12 01:51:00,
2013-09-11 21:53:00,70.0,66.0,30.06,South,180,10.0,20.0,88,0.00,,,0.23,Rainwise IP-100,2013-09-12 01:53:00,
2013-09-11 21:58:00,71.0,66.0,30.06,WSW,247,10.0,19.0,85,0.00,,,0.23,Rainwise IP-100,2013-09-12 01:58:00,
2013-09-11 22:03:00,70.0,65.0,30.06,West,270,5.0,14.0,84,0.00,,,0.23,Rainwise IP-100,2013-09-12 02:03:00,
2013-09-11 22:08:00,70.0,66.0,30.06,SSW,202,8.0,16.0,86,0.00,,,0.23,Rainwise IP-100,2013-09-12 02:08:00,
2013-09-11 22:13:00,70.0,66.0,30.06,South,180,7.0,12.0,87,0.00,,,0.23,Rainwise IP-100,2013-09-12 02:13:00,
2013-09-11 22:18:00,69.0,65.0,30.06,South,180,7.0,10.0,89,0.00,,,0.23,Rainwise IP-100,2013-09-12 02:18:00,
2013-09-11 22:23:00,69.0,65.0,30.06,SSW,202,5.0,14.0,88,0.00,,,0.23,Rainwise IP-100,2013-09-12 02:23:00,
2013-09-11 22:28:00,70.0,66.0,30.06,SW,225,7.0,10.0,87,0.00,,,0.23,Rainwise IP-100,2013-09-12 02:28:00,
2013-09-11 22:33:00,70.0,66.0,30.05,South,180,7.0,11.0,86,0.00,,,0.23,Rainwise IP-100,2013-09-12 02:33:00,
2013-09-11 22:38:00,69.0,65.0,30.05,SSW,202,6.0,9.0,89,0.00,,,0.23,Rainwise IP-100,2013-09-12 02:38:00,
2013-09-11 22:43:00,69.0,65.0,30.07,South,180,6.0,7.0,89,0.00,,,0.23,Rainwise IP-100,2013-09-12 02:43:00,
2013-09-11 22:48:00,69.0,64.0,30.07,SW,225,12.0,12.0,86,0.00,,,0.23,Rainwise IP-100,2013-09-12 02:48:00,
2013-09-11 22:53:00,70.0,65.0,30.07,South,180,14.0,16.0,85,0.00,,,0.23,Rainwise IP-100,2013-09-12 02:53:00,
2013-09-11 22:58:00,70.0,65.0,30.07,SSE,157,11.0,15.0,85,0.00,,,0.23,Rainwise IP-100,2013-09-12 02:58:00,
2013-09-11 23:03:00,70.0,65.0,30.06,SSW,202,10.0,16.0,84,0.00,,,0.23,Rainwise IP-100,2013-09-12 03:03:00,
2013-09-11 23:08:00,70.0,64.0,30.06,SSW,202,12.0,15.0,83,0.00,,,0.23,Rainwise IP-100,2013-09-12 03:08:00,
2013-09-11 23:13:00,70.0,64.0,30.07,SSW,202,9.0,16.0,83,0.00,,,0.23,Rainwise IP-100,2013-09-12 03:13:00,
2013-09-11 23:18:00,70.0,65.0,30.07,SW,225,8.0,13.0,84,0.00,,,0.23,Rainwise IP-100,2013-09-12 03:18:00,
2013-09-11 23:23:00,70.0,65.0,30.07,SW,225,5.0,9.0,85,0.00,,,0.23,Rainwise IP-100,2013-09-12 03:23:00,
2013-09-11 23:28:00,70.0,65.0,30.07,SSE,157,6.0,10.0,85,0.00,,,0.23,Rainwise IP-100,2013-09-12 03:28:00,
2013-09-11 23:33:00,69.0,64.0,30.07,SW,225,4.0,9.0,86,0.00,,,0.23,Rainwise IP-100,2013-09-12 03:33:00,
2013-09-11 23:38:00,69.0,64.0,30.07,South,180,6.0,9.0,86,0.00,,,0.23,Rainwise IP-100,2013-09-12 03:38:00,
2013-09-11 23:43:00,70.0,65.0,30.06,SSE,157,8.0,13.0,84,0.00,,,0.23,Rainwise IP-100,2013-09-12 03:43:00,
2013-09-11 23:48:00,71.0,65.0,30.06,South,180,9.0,10.0,81,0.00,,,0.23,Rainwise IP-100,2013-09-12 03:48:00,
2013-09-11 23:53:00,70.0,64.0,30.05,South,180,7.0,10.0,83,0.00,,,0.23,Rainwise IP-100,2013-09-12 03:53:00,
2013-09-11 23:58:00,70.0,64.0,30.05,WSW,247,5.0,7.0,82,0.00,,,0.23,Rainwise IP-100,2013-09-12 03:58:00,